This demonstration page uses our WeatherBlox Daily Observations layout. Learn more.

Hourly Observations for March 2, 2018

Temp ( °F °C ) Dew Point ( °F °C ) Humidity (%) Winds ( mph kmh ) Pressure ( in mb ) Visibility ( mi km ) Precip ( " mm )
12:15 am 00:15 Clear 34 1.1 16 -9 47 47 SE 15 24 30.3 1026 10 16.0934 0 0
12:35 am 00:35 Clear 33 0.8 16 -8.7 49 49 SE 12 19 30.3 1026 10 16.0934 0 0
12:55 am 00:55 Clear 33 0.3 17 -8.5 52 52 SE 9 15 30.3 1026 10 16.0934 0 0
1:15 am 01:15 Clear 33 0.7 17 -8.5 51 51 SE 14 22 30.3 1026 10 16.0934 0 0
1:35 am 01:35 Clear 33 0.6 17 -8.2 52 52 SE 12 19 30.3 1026 10 16.0934 0 0
1:55 am 01:55 Clear 33 0.6 17 -8.2 52 52 SE 14 22 30.27 1025 10 16.0934 0 0
2:15 am 02:15 Clear 33 0.5 17 -8.2 53 53 SE 12 19 30.27 1025 10 16.0934 0 0
2:35 am 02:35 Clear 33 0.5 18 -8 53 53 SE 12 19 30.27 1025 10 16.0934 0 0
2:55 am 02:55 Clear 35 1.6 17 -8.4 48 48 SSE 17 28 30.21 1023 10 16.0934 0 0
3:15 am 03:15 Clear 35 1.8 17 -8.5 47 47 SSE 18 30 30.21 1023 10 16.0934 0 0
3:35 am 03:35 Clear 36 2 17 -8.5 46 46 SSE 20 31 30.21 1023 10 16.0934 0 0
3:55 am 03:55 Clear 36 2 17 -8.5 46 46 SSE 22 35 30.21 1023 10 16.0934 0 0
4:15 am 04:15 Clear 35 1.5 17 -8.5 48 48 SSE 21 33 30.21 1023 10 16.0934 0 0
4:35 am 04:35 Clear 34 1 17 -8.5 50 50 SSE 17 28 30.21 1023 10 16.0934 0 0
4:55 am 04:55 Clear 33 0.8 17 -8.5 50 50 SSE 17 28 30.21 1023 10 16.0934 0 0
5:15 am 05:15 Clear 33 0.6 17 -8.5 51 51 SSE 17 28 30.24 1024 10 16.0934 0 0
5:35 am 05:35 Clear 33 0.7 17 -8.5 51 51 SSE 20 31 30.24 1024 10 16.0934 0 0
5:55 am 05:55 Clear 33 0.5 17 -8.5 51 51 SSE 20 31 30.24 1024 10 16.0934 0 0
6:15 am 06:15 Clear 33 0.7 17 -8.4 51 51 SSE 21 33 30.18 1022 10 16.0934 0 0
6:35 am 06:35 Clear 33 0.7 17 -8.5 51 51 SSE 18 30 30.24 1024 10 16.0934 0 0
6:55 am 06:55 Clear 33 0.4 17 -8.4 52 52 SSE 18 30 30.24 1024 10 16.0934 0 0
7:15 am 07:15 Sunny 33 0.4 17 -8.4 52 52 SSE 18 30 30.24 1024 10 16.0934 0 0
7:35 am 07:35 Sunny 34 1 17 -8.3 50 50 SSE 18 30 30.21 1023 10 16.0934 0 0
7:55 am 07:55 Sunny 34 1.1 17 -8.3 50 50 SSE 16 26 30.21 1023 10 16.0934 0 0
8:15 am 08:15 Sunny 35 1.5 17 -8.1 49 49 S 16 26 30.21 1023 10 16.0934 0 0
8:35 am 08:35 Sunny 36 2 17 -8.1 48 48 S 18 30 30.21 1023 10 16.0934 0 0
8:55 am 08:55 Sunny 37 2.5 18 -8 46 46 S 18 30 30.21 1023 10 16.0934 0 0
9:15 am 09:15 Sunny 38 3.1 18 -7.8 45 45 S 17 28 30.21 1023 10 16.0934 0 0
9:35 am 09:35 Sunny 38 3.6 18 -7.9 43 43 S 20 31 30.21 1023 10 16.0934 0 0
9:55 am 09:55 Sunny 40 4.5 19 -7.5 42 42 S 17 28 30.18 1022 10 16.0934 0 0
10:15 am 10:15 Sunny 42 5.5 19 -7 40 40 S 17 28 30.15 1021 10 16.0934 0 0
10:35 am 10:35 Sunny 44 6.4 20 -6.6 39 39 S 22 35 30.12 1020 10 16.0934 0 0
10:55 am 10:55 Sunny 46 7.6 21 -6.1 38 38 SSE 26 43 30.09 1019 10 16.0934 0 0
11:15 am 11:15 Sunny 48 8.8 22 -5.7 36 36 S 23 37 30.09 1019 10 16.0934 0 0
11:35 am 11:35 Sunny 50 9.8 23 -5.1 35 35 S 24 39 30.06 1018 10 16.0934 0 0
11:55 am 11:55 Sunny 51 10.8 24 -4.7 34 34 S 22 35 30.03 1017 10 16.0934 0 0
12:15 pm 12:15 Sunny 53 11.6 24 -4.2 33 33 S 22 35 30.03 1017 10 16.0934 0 0
12:35 pm 12:35 Sunny 55 12.6 25 -4 31 31 S 21 33 30.03 1017 10 16.0934 0 0
12:55 pm 12:55 Sunny 56 13.5 26 -3.5 31 31 S 18 30 30 1016 10 16.0934 0 0
1:15 pm 13:15 Sunny 57 13.8 26 -3.3 31 31 S 21 33 30 1016 10 16.0934 0 0
1:35 pm 13:35 Sunny 58 14.5 27 -3 30 30 S 17 28 29.97 1015 10 16.0934 0 0
1:55 pm 13:55 Sunny 59 15 27 -2.6 30 30 S 13 20 29.97 1015 10 16.0934 0 0
2:15 pm 14:15 Sunny 60 15.6 28 -2.2 30 30 S 17 28 29.97 1015 10 16.0934 0 0
2:35 pm 14:35 Sunny 60 15.8 29 -1.9 30 30 S 16 26 29.91 1013 10 16.0934 0 0
2:55 pm 14:55 Sunny 62 16.7 29 -1.6 29 29 S 18 30 29.91 1013 10 16.0934 0 0
3:15 pm 15:15 Sunny 63 17.1 30 -1.3 29 29 S 15 24 29.91 1013 10 16.0934 0 0
3:35 pm 15:35 Sunny 64 17.5 30 -1.3 28 28 S 21 33 29.88 1012 10 16.0934 0 0
3:55 pm 15:55 Sunny 64 17.5 30 -1.2 28 28 S 20 31 29.88 1012 10 16.0934 0 0
4:15 pm 16:15 Sunny 64 17.6 31 -0.8 29 29 SSE 22 35 29.88 1012 10 16.0934 0 0
4:35 pm 16:35 Sunny 64 17.6 31 -0.5 29 29 SSE 18 30 29.88 1012 10 16.0934 0 0
4:55 pm 16:55 Sunny 64 17.6 31 -0.5 29 29 SSE 18 30 29.88 1012 10 16.0934 0 0
5:15 pm 17:15 Sunny 64 17.6 31 -0.3 30 30 SSE 13 20 29.88 1012 10 16.0934 0 0
5:35 pm 17:35 Sunny 62 16.8 32 -0.2 32 32 SSE 13 20 29.88 1012 10 16.0934 0 0
5:55 pm 17:55 Sunny 61 16 31 -0.5 33 33 SE 10 17 29.88 1012 10 16.0934 0 0
6:15 pm 18:15 Sunny 56 13.5 30 -1 37 37 SE 9 15 29.91 1013 10 16.0934 0 0
6:35 pm 18:35 Clear 50 10.2 28 -2 43 43 ESE 8 13 29.94 1014 10 16.0934 0 0
6:55 pm 18:55 Clear 47 8.5 29 -1.7 49 49 ESE 12 19 29.97 1015 10 16.0934 0 0
7:15 pm 19:15 Clear 47 8.1 28 -2 49 49 ESE 13 20 29.97 1015 10 16.0934 0 0
7:35 pm 19:35 Clear 47 8.2 29 -1.5 51 51 ESE 14 22 29.97 1015 10 16.0934 0 0
7:55 pm 19:55 Clear 47 8.5 29 -1.7 49 49 ESE 13 20 29.97 1015 10 16.0934 0 0
8:15 pm 20:15 Clear 47 8.6 28 -2.1 47 47 SE 16 26 29.94 1014 10 16.0934 0 0
8:35 pm 20:35 Clear 46 7.6 28 -2.2 50 50 ESE 15 24 29.97 1015 10 16.0934 0 0
8:55 pm 20:55 Clear 45 7 28 -2.5 51 51 ESE 14 22 29.97 1015 10 16.0934 0 0
9:15 pm 21:15 Clear 43 6.2 28 -2.5 54 54 ESE 14 22 29.97 1015 10 16.0934 0 0
9:35 pm 21:35 Clear 48 8.7 28 -2.5 46 46 SE 17 28 29.94 1014 10 16.0934 0 0
9:55 pm 21:55 Clear 47 8.5 27 -2.6 46 46 SE 17 28 29.97 1015 10 16.0934 0 0
10:15 pm 22:15 Clear 46 7.9 27 -2.9 47 47 SE 16 26 29.97 1015 10 16.0934 0 0
10:35 pm 22:35 Clear 45 7 27 -2.9 50 50 SSE 15 24 29.97 1015 10 16.0934 0 0
10:55 pm 22:55 Clear 44 6.6 27 -2.8 51 51 SSE 15 24 29.97 1015 10 16.0934 0 0
11:15 pm 23:15 Clear 45 7 27 -2.6 51 51 SSE 13 20 29.97 1015 10 16.0934 0 0
11:35 pm 23:35 Clear 44 6.9 28 -2.5 52 52 SSE 15 24 29.97 1015 10 16.0934 0 0
11:55 pm 23:55 Clear 44 6.5 28 -2.2 54 54 SSE 15 24 29.97 1015 10 16.0934 0 0

Powered by AerisWeather